Flag for U.S.A. Weather past 2 weeks in Downey, California, U.S.A.

Now
72 °F

Sunny.


Feels Like: 76 °F
Forecast: 50 / 72 °F
Wind: 8 mph from South

Location: Long Beach Airport

Current Time: Dec 22, 2014 at 2:49:25 PM

Latest Report: Dec 22, 2014 at 1:53 PM


Visibility: 4 mi

Pressure: 29.95 "Hg

Humidity: 59%

Dew point: 57 °F

Location of DowneyLocation

Historic Weather in Downey — Graph

°F

Downey temperature yesterday

Maximum temperature yesterday: 66 °F (at 12:53 PM)
Minimum temperature yesterday: 53 °F (at 4:53 AM)
Average temperature yesterday: 59 °F

Past Weeks' High & Low Weather Summary

 TemperatureHumidityPressure
High80 °F (Dec 8, 1:53 PM)100% (Dec 10, 1:53 AM)30.24 "Hg (Dec 10, 1:53 AM)
Low47 °F (Dec 15, 6:53 AM)30% (Dec 8, 1:53 PM)29.83 "Hg (Dec 12, 2:53 AM)
Average59 °F77%30.06 "Hg
* Reported Dec 7 1:53 PM — Dec 22 1:53 PM, Downey, Weather by CustomWeather, © 2014

Note: Actual official high and low records may vary slightly from our data, if they occured in-between our weather recording intervals... More about our weather records

Advertising

Downey weather history for previous 24 hours

 ConditionsComfort  
Time TempWeatherWind HumidityBarometerVisibility
1:53 PM
Dec 22
72 °FSunny.8 mph59%29.95 "Hg4 mi
12:53 PM72 °FSunny.No wind49%29.98 "Hg7 mi
11:53 AM70 °FSunny.No wind55%30.00 "Hg5 mi
10:53 AM67 °FSunny.No wind63%30.03 "Hg4 mi
9:53 AM63 °FSunny.No wind70%30.06 "Hg4 mi
8:53 AM57 °FSunny.No wind83%30.05 "Hg4 mi
7:53 AM52 °FFog.No wind93%30.04 "Hg3 mi
6:53 AM51 °FFog.No wind92%30.03 "Hg4 mi
5:53 AM50 °FFog.No wind96%30.03 "Hg3 mi
5:04 AM51 °FFog.No wind92%30.03 "Hg3 mi
4:01 AM51 °FFog.3 mph96%30.03 "Hg2 mi
2:58 AM52 °FFog.No wind100%30.04 "Hg2 mi
2:02 AM53 °FFog.3 mph93%30.04 "Hg1 mi
2:00 AM53 °FFog.5 mph93%30.04 "Hg2 mi
12:53 AM55 °FFog.No wind96%30.03 "Hg3 mi
11:53 PM
Dec 21
55 °FFog.5 mph93%30.05 "Hg3 mi
10:53 PM57 °FFog.No wind93%30.05 "Hg3 mi
9:53 PM58 °FFog.5 mph90%30.06 "Hg3 mi
8:53 PM59 °FFog.No wind90%30.06 "Hg4 mi
7:53 PM59 °FFog.No wind90%30.05 "Hg4 mi
6:53 PM60 °FFog.No wind86%30.05 "Hg5 mi
5:53 PM62 °FClear.5 mph83%30.04 "Hg6 mi
4:53 PM62 °FClear.3 mph80%30.04 "Hg7 mi
3:53 PM64 °FSunny.7 mph75%30.05 "Hg6 mi
2:53 PM64 °FSunny.6 mph75%30.04 "Hg7 mi
Weather by CustomWeather, © 2014

See weather overviewHow to use our weather pages